When you browse on this site, cookies collect data to enhance your experience and personalize the content and advertising you see.
Visit our Privacy Policy to learn more. By continuing to use the site, you agree to this use of cookies and data.
  • In Switzerland
  • List of Countries
  • For 7 days
  • Water Temperature
  • Satellite Maps
  • Weather Map
  • Weather Widgets
  • user-avatar
    Login

    Hourly Weather Goslar

    Today, 19 July, Friday

    Time Temperature Precipitation Wind Pressure Humidity
    00:00 +18°C° 0 mm 1 mps 731 mmHg 75%
    01:00 +17°C° 0 mm 2 mps 732 mmHg 73%
    02:00 +17°C° 0.1 mm 2 mps 731 mmHg 77%
    03:00 +16°C° 0.1 mm 1 mps 731 mmHg 82%
    04:00 +15°C° 0.1 mm 1 mps 731 mmHg 87%
    05:00 +16°C° 0 mm 1 mps 732 mmHg 86%
    06:00 +17°C° 0 mm 2 mps 732 mmHg 84%
    07:00 +18°C° 0 mm 2 mps 733 mmHg 83%
    08:00 +19°C° 0.4 mm 2 mps 733 mmHg 81%
    09:00 +19°C° 0.4 mm 3 mps 733 mmHg 80%
    10:00 +20°C° 0.4 mm 4 mps 733 mmHg 78%
    11:00 +20°C° 0.5 mm 3 mps 733 mmHg 75%
    12:00 +21°C° 0.5 mm 3 mps 733 mmHg 72%
    13:00 +22°C° 0.5 mm 3 mps 733 mmHg 68%
    14:00 +22°C° 0.2 mm 3 mps 733 mmHg 67%
    15:00 +22°C° 0.2 mm 3 mps 733 mmHg 65%
    16:00 +24°C° 0.2 mm 2 mps 733 mmHg 63%
    17:00 +23°C° 0.1 mm 2 mps 733 mmHg 67%
    18:00 +21°C° 0.1 mm 2 mps 733 mmHg 72%
    19:00 +21°C° 0.1 mm 1 mps 733 mmHg 76%
    20:00 +20°C° 0 mm 1 mps 733 mmHg 80%
    21:00 +18°C° 0 mm 1 mps 733 mmHg 83%
    22:00 +15°C° 0 mm 0 mps 733 mmHg 87%
    23:00 +16°C° 0 mm 1 mps 734 mmHg 87%

    Tomorrow, 20 July, Saturday

    Time Temperature Precipitation Wind Pressure Humidity
    00:00 +15°C° 0 mm 1 mps 734 mmHg 88%
    01:00 +15°C° 0 mm 1 mps 734 mmHg 88%
    02:00 +15°C° 0 mm 1 mps 734 mmHg 88%
    03:00 +15°C° 0 mm 1 mps 734 mmHg 89%
    04:00 +15°C° 0 mm 1 mps 734 mmHg 90%
    05:00 +16°C° 0 mm 1 mps 734 mmHg 86%
    06:00 +19°C° 0 mm 1 mps 734 mmHg 82%
    07:00 +19°C° 0 mm 2 mps 734 mmHg 79%
    08:00 +21°C° 0 mm 2 mps 734 mmHg 72%
    09:00 +22°C° 0 mm 3 mps 734 mmHg 64%
    10:00 +25°C° 0 mm 3 mps 734 mmHg 57%
    11:00 +26°C° 0.1 mm 4 mps 733 mmHg 57%
    12:00 +26°C° 0.1 mm 4 mps 733 mmHg 57%
    13:00 +27°C° 0.1 mm 4 mps 733 mmHg 57%
    14:00 +26°C° 1.7 mm 4 mps 733 mmHg 65%
    15:00 +25°C° 1.7 mm 4 mps 732 mmHg 73%
    16:00 +22°C° 1.7 mm 4 mps 732 mmHg 80%
    17:00 +22°C° 0.2 mm 3 mps 732 mmHg 82%
    18:00 +23°C° 0.2 mm 2 mps 732 mmHg 84%
    19:00 +22°C° 0.2 mm 1 mps 732 mmHg 86%
    20:00 +21°C° 0.8 mm 1 mps 732 mmHg 87%
    21:00 +19°C° 0.8 mm 2 mps 733 mmHg 88%
    22:00 +18°C° 0.8 mm 2 mps 733 mmHg 89%
    23:00 +18°C° 0 mm 2 mps 733 mmHg 90%

    Day after tomorrow, 21 July, Sunday

    Time Temperature Precipitation Wind Pressure Humidity
    00:00 +18°C° 0 mm 2 mps 733 mmHg 91%
    01:00 +17°C° 0 mm 2 mps 733 mmHg 92%
    02:00 +17°C° 0 mm 2 mps 733 mmHg 93%
    03:00 +17°C° 0 mm 2 mps 733 mmHg 94%
    04:00 +16°C° 0 mm 2 mps 733 mmHg 95%
    05:00 +17°C° 0 mm 3 mps 734 mmHg 92%
    06:00 +18°C° 0 mm 3 mps 734 mmHg 90%
    07:00 +19°C° 0 mm 3 mps 734 mmHg 87%
    08:00 +20°C° 0.3 mm 4 mps 735 mmHg 84%
    09:00 +20°C° 0.3 mm 5 mps 735 mmHg 80%
    10:00 +21°C° 0.3 mm 5 mps 736 mmHg 76%
    11:00 +22°C° 0.3 mm 5 mps 736 mmHg 72%
    12:00 +22°C° 0.3 mm 6 mps 736 mmHg 69%
    13:00 +23°C° 0.3 mm 6 mps 736 mmHg 65%
    14:00 +23°C° 0.2 mm 5 mps 737 mmHg 63%
    15:00 +23°C° 0.2 mm 5 mps 737 mmHg 62%
    16:00 +23°C° 0.2 mm 5 mps 737 mmHg 60%
    17:00 +22°C° 0 mm 4 mps 737 mmHg 64%
    18:00 +21°C° 0 mm 3 mps 738 mmHg 68%
    19:00 +21°C° 0 mm 3 mps 738 mmHg 73%
    20:00 +19°C° 0 mm 2 mps 738 mmHg 77%
    21:00 +18°C° 0 mm 2 mps 739 mmHg 81%
    22:00 +16°C° 0 mm 1 mps 739 mmHg 85%
    23:00 +16°C° 0 mm 1 mps 739 mmHg 87%

    22 July, Monday

    Time Temperature Precipitation Wind Pressure Humidity
    00:00 +15°C° 0 mm 1 mps 739 mmHg 88%
    01:00 +15°C° 0 mm 1 mps 739 mmHg 90%
    02:00 +14°C° 0 mm 1 mps 739 mmHg 90%
    03:00 +14°C° 0 mm 1 mps 740 mmHg 90%
    04:00 +14°C° 0 mm 1 mps 740 mmHg 90%
    05:00 +15°C° 0 mm 1 mps 740 mmHg 87%
    06:00 +18°C° 0 mm 1 mps 740 mmHg 83%
    07:00 +19°C° 0 mm 1 mps 740 mmHg 79%
    08:00 +20°C° 0 mm 1 mps 741 mmHg 74%
    09:00 +20°C° 0 mm 2 mps 741 mmHg 68%
    10:00 +23°C° 0 mm 2 mps 741 mmHg 63%
    11:00 +24°C° 0 mm 2 mps 741 mmHg 59%
    12:00 +24°C° 0 mm 2 mps 741 mmHg 56%
    13:00 +25°C° 0 mm 3 mps 741 mmHg 53%
    14:00 +25°C° 0 mm 2 mps 741 mmHg 53%
    15:00 +26°C° 0 mm 2 mps 741 mmHg 53%
    16:00 +26°C° 0 mm 2 mps 741 mmHg 53%
    17:00 +25°C° 0 mm 2 mps 741 mmHg 58%
    18:00 +24°C° 0 mm 1 mps 741 mmHg 64%
    19:00 +23°C° 0 mm 1 mps 741 mmHg 69%
    20:00 +22°C° 0 mm 1 mps 741 mmHg 73%
    21:00 +20°C° 0 mm 1 mps 741 mmHg 77%
    22:00 +19°C° 0 mm 1 mps 741 mmHg 81%
    23:00 +18°C° 0 mm 1 mps 741 mmHg 81%

    23 July, Tuesday

    Time Temperature Precipitation Wind Pressure Humidity
    00:00 +18°C° 0 mm 1 mps 741 mmHg 81%
    01:00 +18°C° 0 mm 1 mps 741 mmHg 82%
    02:00 +18°C° 0 mm 1 mps 741 mmHg 82%
    03:00 +16°C° 0 mm 1 mps 740 mmHg 83%
    04:00 +16°C° 0 mm 1 mps 740 mmHg 84%
    05:00 +17°C° 0 mm 0 mps 740 mmHg 79%
    06:00 +18°C° 0 mm 0 mps 740 mmHg 74%
    07:00 +20°C° 0 mm 0 mps 740 mmHg 69%
    08:00 +22°C° 0 mm 0 mps 740 mmHg 64%
    09:00 +25°C° 0 mm 1 mps 740 mmHg 58%
    10:00 +27°C° 0 mm 1 mps 740 mmHg 52%
    11:00 +27°C° 0 mm 1 mps 740 mmHg 51%
    12:00 +28°C° 0 mm 1 mps 740 mmHg 49%
    13:00 +29°C° 0 mm 2 mps 740 mmHg 47%
    14:00 +29°C° 0 mm 1 mps 739 mmHg 48%
    15:00 +29°C° 0 mm 1 mps 739 mmHg 48%
    16:00 +29°C° 0 mm 1 mps 739 mmHg 48%
    17:00 +28°C° 0 mm 1 mps 739 mmHg 54%
    18:00 +27°C° 0 mm 2 mps 738 mmHg 59%
    19:00 +26°C° 0 mm 2 mps 738 mmHg 65%
    20:00 +25°C° 0 mm 2 mps 738 mmHg 67%
    21:00 +23°C° 0 mm 2 mps 738 mmHg 69%
    22:00 +20°C° 0 mm 2 mps 738 mmHg 72%
    23:00 +20°C° 0 mm 2 mps 738 mmHg 71%

    24 July, Wednesday

    Time Temperature Precipitation Wind Pressure Humidity
    00:00 +20°C° 0 mm 2 mps 738 mmHg 71%
    01:00 +19°C° 0 mm 2 mps 738 mmHg 71%
    02:00 +20°C° 0 mm 1 mps 738 mmHg 71%
    03:00 +19°C° 0 mm 1 mps 737 mmHg 72%
    04:00 +19°C° 0 mm 1 mps 737 mmHg 73%
    05:00 +21°C° 0 mm 1 mps 737 mmHg 70%
    06:00 +21°C° 0 mm 2 mps 737 mmHg 68%
    07:00 +23°C° 0 mm 2 mps 737 mmHg 66%
    08:00 +25°C° 0 mm 2 mps 737 mmHg 61%
    09:00 +27°C° 0 mm 2 mps 737 mmHg 57%
    10:00 +29°C° 0 mm 3 mps 737 mmHg 52%
    11:00 +30°C° 0 mm 3 mps 737 mmHg 50%
    12:00 +31°C° 0 mm 3 mps 737 mmHg 48%
    13:00 +31°C° 0 mm 3 mps 737 mmHg 46%
    14:00 +32°C° 0 mm 2 mps 737 mmHg 46%
    15:00 +32°C° 0 mm 2 mps 737 mmHg 45%
    16:00 +32°C° 0 mm 2 mps 736 mmHg 45%
    17:00 +31°C° 0 mm 2 mps 736 mmHg 50%
    18:00 +30°C° 0 mm 2 mps 736 mmHg 56%
    19:00 +28°C° 0 mm 2 mps 736 mmHg 61%
    20:00 +27°C° 0 mm 2 mps 736 mmHg 61%
    21:00 +25°C° 0 mm 2 mps 736 mmHg 61%
    22:00 +24°C° 0 mm 2 mps 736 mmHg 61%
    23:00 +23°C° 0 mm 2 mps 736 mmHg 60%
    Show more